DW2150 Weather Reports


time (UTC)temp
C
wind
direction
speed
KPH
gust
KPH
rain 1hr
cm
rain 24hr
cm
rain mn
cm
humidity
%
barometer
mb
20260901185521 28 244 3.2 8.0 0.00 0.00 0.00 88 1014.9
20260901185019 28 236 0.0 6.4 0.00 0.00 0.00 88 1014.9
20260901184515 28 236 0.0 6.4 0.00 0.00 0.00 87 1014.9
20260901184012 28 295 1.6 6.4 0.00 0.00 0.00 87 1014.9
20260901183509 28 263 1.6 6.4 0.00 0.00 0.00 86 1014.9
20260901183006 28 336 1.6 6.4 0.00 0.00 0.00 85 1014.9
20260901182432 28 270 1.6 6.4 0.00 0.00 0.00 84 1014.9
20260901181929 28 280 3.2 8.0 0.00 0.00 0.00 85 1014.9
20260901181417 28 282 1.6 8.0 0.00 0.00 0.00 85 1014.9
20260901180914 28 279 1.6 8.0 0.00 0.00 0.00 84 1014.9
20260901180411 28 306 1.6 8.0 0.00 0.00 0.00 83 1014.9
20260901175854 28 251 3.2 6.4 0.00 0.00 0.00 83 1014.9
20260901175332 28 325 3.2 4.8 0.00 0.00 0.00 84 1014.9
20260901174740 28 191 3.2 6.4 0.00 0.00 0.00 84 1015.2
20260901174236 28 249 3.2 6.4 0.00 0.00 0.00 84 1015.2
20260901173714 28 256 3.2 8.0 0.00 0.00 0.00 84 1015.2
20260901173211 28 237 3.2 8.0 0.00 0.00 0.00 84 1015.2
20260901172708 28 253 1.6 8.0 0.00 0.00 0.00 85 1015.6
20260901172205 28 289 3.2 8.0 0.00 0.00 0.00 84 1015.6
20260901171644 28 277 1.6 6.4 0.00 0.00 0.00 85 1015.9
20260901171141 28 276 3.2 4.8 0.00 0.00 0.00 84 1015.9
20260901170638 28 55 1.6 4.8 0.00 0.00 0.00 84 1016.3
20260901170136 28 57 1.6 4.8 0.00 0.00 0.00 83 1016.3
20260901165611 28 349 1.6 9.7 0.00 0.00 0.00 84 1015.9
20260901165109 29 5 1.6 9.7 0.00 0.00 0.00 83 1016.3
20260901164606 29 45 1.6 9.7 0.00 0.00 0.00 83 1016.3
20260901164103 29 72 1.6 9.7 0.00 0.00 0.00 82 1016.3
20260901163600 29 259 1.6 12.9 0.00 0.00 0.00 82 1016.3
20260901163025 29 86 1.6 12.9 0.00 0.00 0.00 82 1016.3
20260901162522 29 28 3.2 12.9 0.00 0.00 0.00 82 1016.3
20260901162018 29 30 3.2 12.9 0.00 0.00 0.00 81 1016.3
20260901161515 30 40 3.2 12.9 0.00 0.00 0.00 81 1016.3
20260901161012 30 45 4.8 12.9 0.00 0.00 0.00 81 1016.3
20260901160431 30 13 4.8 12.9 0.00 0.00 0.00 81 1016.3
20260901155928 30 42 4.8 11.3 0.00 0.00 0.00 81 1016.3
20260901155425 30 52 3.2 8.0 0.00 0.00 0.00 81 1016.3
20260901154851 30 103 1.6 8.0 0.00 0.00 0.00 81 1015.9
20260901154348 30 54 3.2 8.0 0.00 0.00 0.00 81 1015.9
20260901153846 29 351 1.6 8.0 0.00 0.00 0.00 81 1015.9
20260901153343 29 21 3.2 6.4 0.00 0.00 0.00 82 1015.9
20260901152839 29 28 1.6 8.0 0.00 0.00 0.00 82 1015.6
20260901152337 29 76 1.6 8.0 0.00 0.00 0.00 82 1015.6
20260901151834 29 62 3.2 8.0 0.00 0.00 0.00 83 1015.6
20260901151312 29 224 3.2 8.0 0.00 0.00 0.00 84 1015.6
20260901150737 28 236 3.2 4.8 0.00 0.00 0.00 84 1015.6
20260901150216 28 113 1.6 4.8 0.00 0.00 0.00 85 1015.6
20260901145657 28 29 1.6 4.8 0.00 0.00 0.00 85 1015.9
20260901145153 28 155 1.6 3.2 0.00 0.00 0.00 85 1015.9
20260901144650 28 116 1.6 4.8 0.00 0.00 0.00 85 1015.6
20260901144147 28 195 1.6 4.8 0.00 0.00 0.00 86 1015.6
20260901143644 28 87 1.6 4.8 0.00 0.00 0.00 86 1015.6
20260901143141 28 273 1.6 4.8 0.00 0.00 0.00 86 1015.6
20260901142638 28 277 1.6 4.8 0.00 0.00 0.00 87 1015.9
20260901142134 28 331 3.2 4.8 0.00 0.00 0.00 87 1015.9
20260901141631 28 321 1.6 4.8 0.00 0.00 0.00 87 1015.9
20260901141128 28 274 1.6 4.8 0.00 0.00 0.00 87 1015.6
20260901140624 27 41 1.6 6.4 0.00 0.00 0.00 88 1015.9
20260901140059 27 227 1.6 6.4 0.00 0.00 0.00 88 1015.6
20260901135526 27 234 1.6 6.4 0.00 0.00 0.00 88 1015.6
20260901135004 27 233 1.6 4.8 0.00 0.00 0.00 89 1015.6
20260901134359 27 251 3.2 4.8 0.00 0.00 0.00 89 1015.6
20260901133855 27 259 3.2 3.2 0.00 0.00 0.00 89 1015.6
20260901133352 27 5 0.0 0.0 0.00 0.00 0.00 89 1015.6
20260901132849 27 5 0.0 0.0 0.00 0.00 0.00 89 1015.6
20260901132346 27 5 0.0 0.0 0.00 0.00 0.00 89 1015.6
20260901131824 27 335 0.0 0.0 0.00 0.00 0.00 90 1015.6
20260901131250 27 333 0.0 0.0 0.00 0.00 0.00 90 1015.6
20260901130748 27 333 0.0 0.0 0.00 0.00 0.00 90 1015.6
20260901130226 27 333 0.0 0.0 0.00 0.00 0.00 90 1015.6
20260901125629 27 333 0.0 0.0 0.00 0.00 0.00 90 1015.2
20260901125126 27 333 0.0 0.0 0.00 0.00 0.00 90 1015.2
20260901124552 27 333 0.0 1.6 0.00 0.00 0.00 90 1015.2
20260901124047 27 333 0.0 1.6 0.00 0.00 0.00 90 1015.2
20260901123525 27 333 0.0 1.6 0.00 0.00 0.00 90 1015.2
20260901123022 27 333 1.6 1.6 0.00 0.00 0.00 90 1015.2
20260901122519 27 333 0.0 1.6 0.00 0.00 0.00 90 1014.9
20260901122016 27 333 0.0 1.6 0.00 0.00 0.00 90 1014.9
20260901121513 27 333 1.6 1.6 0.00 0.00 0.00 91 1014.9
20260901121011 27 333 0.0 1.6 0.00 0.00 0.00 91 1014.9
20260901120508 27 333 0.0 1.6 0.00 0.00 0.00 91 1014.9
20260901115946 27 333 0.0 1.6 0.00 0.00 0.00 91 1014.6
20260901115443 27 333 1.6 1.6 0.00 0.00 0.00 91 1014.6
20260901114940 27 333 1.6 1.6 0.00 0.00 0.00 91 1014.6
20260901114437 27 332 1.6 1.6 0.00 0.00 0.00 91 1014.6
20260901113903 27 340 0.0 3.2 0.00 0.00 0.00 91 1014.6
20260901113329 27 340 1.6 3.2 0.00 0.00 0.00 91 1014.9
20260901112816 27 340 0.0 3.2 0.00 0.00 0.00 91 1014.9
20260901112312 27 340 1.6 1.6 0.00 0.00 0.00 91 1014.9
20260901111809 27 339 0.0 1.6 0.00 0.00 0.00 91 1014.9
20260901111302 27 339 1.6 1.6 0.00 0.00 0.00 91 1014.6
20260901110758 27 339 0.0 1.6 0.00 0.00 0.00 91 1014.6
20260901110202 27 339 0.0 1.6 0.00 0.00 0.00 91 1014.6
20260901105610 27 341 0.0 3.2 0.00 0.00 0.00 91 1014.6
20260901105107 27 341 0.0 3.2 0.00 0.00 0.00 91 1014.6
20260901104604 27 341 1.6 3.2 0.00 0.00 0.00 91 1014.6
20260901104101 27 346 1.6 3.2 0.00 0.00 0.00 91 1014.6
20260901103559 27 43 0.0 1.6 0.00 0.00 0.00 91 1014.6
20260901103025 27 43 0.0 1.6 0.00 0.00 0.00 91 1014.6
20260901102451 27 43 0.0 1.6 0.00 0.00 0.00 91 1014.6
20260901101930 27 43 1.6 1.6 0.00 0.00 0.00 91 1014.6
20260901101408 27 43 0.0 1.6 0.00 0.00 0.00 91 1014.6
20260901100846 27 43 1.6 1.6 0.00 0.00 0.00 91 1014.6
20260901100325 27 44 0.0 1.6 0.00 0.00 0.00 91 1014.6
20260901095803 27 98 1.6 1.6 0.00 0.00 0.00 91 1014.6
20260901095259 27 98 0.0 1.6 0.00 0.00 0.00 91 1014.6
20260901094756 27 97 1.6 1.6 0.00 0.00 0.00 91 1014.6
20260901094253 27 98 1.6 1.6 0.00 0.00 0.00 91 1014.6
20260901093750 27 98 0.0 3.2 0.00 0.00 0.00 91 1014.9
20260901093231 27 98 0.0 3.2 0.00 0.00 0.00 91 1014.9
20260901092728 27 98 0.0 3.2 0.00 0.00 0.00 92 1014.6
20260901092225 27 98 3.2 3.2 0.00 0.00 0.00 92 1014.9
20260901091722 27 97 0.0 1.6 0.00 0.00 0.00 92 1014.9
20260901091219 27 97 0.0 1.6 0.00 0.00 0.00 92 1014.9
20260901090717 27 97 0.0 1.6 0.00 0.00 0.00 92 1014.9
20260901090214 27 97 1.6 1.6 0.00 0.00 0.00 92 1014.9
20260901085711 27 97 0.0 0.0 0.00 0.00 0.00 92 1014.9
20260901085207 26 97 0.0 0.0 0.00 0.00 0.00 92 1014.9
20260901084704 26 97 0.0 0.0 0.00 0.00 0.00 91 1014.9
20260901084201 26 97 0.0 0.0 0.00 0.00 0.00 91 1014.9
20260901083659 26 97 0.0 0.0 0.00 0.00 0.00 91 1014.9
20260901083156 26 97 0.0 0.0 0.00 0.00 0.00 91 1014.9
20260901082653 27 97 0.0 0.0 0.00 0.00 0.00 91 1014.9
20260901082150 27 97 0.0 0.0 0.00 0.00 0.00 91 1014.9
20260901081648 27 97 0.0 0.0 0.00 0.00 0.00 91 1014.9
20260901081145 27 97 0.0 0.0 0.00 0.00 0.00 91 1014.9
20260901080611 27 97 0.0 0.0 0.00 0.00 0.00 90 1014.9
20260901080108 27 97 0.0 0.0 0.00 0.00 0.00 90 1014.9
20260901075531 27 97 0.0 0.0 0.00 0.00 0.00 90 1014.9
20260901075028 27 97 0.0 0.0 0.00 0.00 0.00 90 1014.9
20260901074525 27 97 0.0 0.0 0.00 0.00 0.00 90 1014.9
20260901074022 27 97 0.0 0.0 0.00 0.00 0.00 90 1014.9
20260901073501 27 97 0.0 0.0 0.00 0.00 0.00 90 1014.9
20260901072939 27 97 0.0 0.0 0.00 0.00 0.00 89 1014.9
20260901072416 27 97 0.0 0.0 0.00 0.00 0.00 89 1014.9
20260901071914 27 97 0.0 0.0 0.00 0.00 0.00 89 1014.9
20260901071401 27 97 0.0 0.0 0.00 0.00 0.00 89 1014.9
20260901070857 27 97 0.0 0.0 0.00 0.00 0.00 89 1015.2
20260901070348 27 97 0.0 0.0 0.00 0.00 0.00 89 1015.2
20260901065814 27 97 0.0 0.0 0.00 0.00 0.00 89 1015.2
20260901065311 27 97 0.0 0.0 0.00 0.00 0.00 89 1015.2
20260901064808 27 97 0.0 0.0 0.00 0.00 0.00 89 1015.2
20260901064305 27 97 0.0 0.0 0.00 0.00 0.00 89 1015.2
20260901063802 27 97 0.0 0.0 0.00 0.00 0.00 89 1015.2
20260901063300 27 97 0.0 0.0 0.00 0.00 0.00 89 1014.9
20260901062726 27 97 0.0 0.0 0.00 0.00 0.00 89 1014.9
20260901062204 27 97 0.0 0.0 0.00 0.00 0.00 89 1015.2
20260901061701 27 97 0.0 1.6 0.00 0.00 0.00 89 1015.2
20260901061158 27 97 0.0 1.6 0.00 0.00 0.00 89 1015.2
20260901060624 27 97 0.0 1.6 0.00 0.00 0.00 89 1015.2
20260901060121 27 97 0.0 0.0 0.00 0.00 0.00 89 1015.2
20260901055546 27 97 0.0 0.0 0.00 0.00 0.00 89 1015.2
20260901055043 27 97 0.0 0.0 0.00 0.00 0.00 89 1015.2
20260901054540 27 97 0.0 0.0 0.00 0.00 0.00 88 1015.2
20260901054036 27 97 0.0 0.0 0.00 0.00 0.00 88 1015.2
20260901053533 27 97 0.0 0.0 0.00 0.00 0.00 88 1015.2
20260901053030 27 97 0.0 0.0 0.00 0.00 0.00 88 1015.2
20260901052525 27 97 0.0 0.0 0.00 0.00 0.00 88 1015.2
20260901052022 27 97 0.0 0.0 0.00 0.00 0.00 88 1015.2
20260901051519 27 97 0.0 0.0 0.00 0.00 0.00 88 1015.2
20260901050957 27 97 0.0 0.0 0.00 0.00 0.00 87 1015.2
20260901050435 27 97 0.0 0.0 0.00 0.00 0.00 87 1015.2
20260901045932 27 97 0.0 0.0 0.00 0.00 0.00 87 1015.2
20260901045429 27 97 0.0 0.0 0.00 0.00 0.00 88 1015.2
20260901044855 27 97 0.0 0.0 0.00 0.00 0.00 88 1014.9
20260901044321 27 97 0.0 0.0 0.00 0.00 0.00 87 1014.9
20260901043818 27 97 0.0 0.0 0.00 0.00 0.00 87 1015.2
20260901043244 27 97 0.0 0.0 0.00 0.00 0.00 87 1015.2
20260901042741 27 97 0.0 0.0 0.00 0.00 0.00 87 1015.2
20260901042238 27 97 0.0 0.0 0.00 0.00 0.00 87 1015.2
20260901041645 27 97 0.0 0.0 0.00 0.00 0.00 87 1015.2
20260901041140 27 97 0.0 0.0 0.00 0.00 0.00 87 1015.2
20260901040606 27 97 0.0 0.0 0.00 0.00 0.00 87 1015.2
20260901040032 27 97 0.0 0.0 0.00 0.00 0.00 87 1015.2
20260901035528 27 97 0.0 0.0 0.00 0.00 0.00 86 1015.2
20260901034953 27 97 0.0 0.0 0.00 0.00 0.00 86 1014.9
20260901034450 27 97 0.0 0.0 0.00 0.00 0.00 86 1014.9
20260901033947 27 97 0.0 0.0 0.00 0.00 0.00 86 1014.9
20260901033444 28 97 0.0 0.0 0.00 0.00 0.00 86 1014.9
20260901032940 28 97 0.0 0.0 0.00 0.00 0.00 86 1015.2
20260901032405 28 97 0.0 0.0 0.00 0.00 0.00 86 1015.2
20260901031903 28 97 0.0 0.0 0.00 0.00 0.00 86 1014.9
20260901031400 28 97 0.0 0.0 0.00 0.00 0.00 86 1014.9
20260901030855 28 97 0.0 0.0 0.00 0.00 0.00 86 1014.9
20260901030352 28 97 0.0 0.0 0.00 0.00 0.00 86 1014.9
20260901025849 28 97 0.0 0.0 0.00 0.00 0.00 86 1014.9
20260901025346 28 97 0.0 0.0 0.00 0.00 0.00 86 1014.9
20260901024843 28 97 0.0 0.0 0.00 0.00 0.00 86 1014.6
20260901024340 28 97 0.0 0.0 0.00 0.00 0.00 86 1014.6
20260901023837 28 97 0.0 0.0 0.00 0.00 0.00 86 1014.2
20260901023334 28 97 0.0 0.0 0.00 0.00 0.00 86 1014.2
20260901022831 28 97 0.0 0.0 0.00 0.00 0.00 86 1014.2
20260901022256 28 97 0.0 0.0 0.00 0.00 0.00 85 1014.2
20260901021726 28 97 0.0 0.0 0.00 0.00 0.00 85 1014.2
20260901021151 28 97 0.0 0.0 0.00 0.00 0.00 85 1014.2
20260901020115 29 97 0.0 0.0 0.00 0.00 0.00 85 1013.9
20260901015553 29 97 0.0 0.0 0.00 0.00 0.00 84 1013.9
20260901015050 29 97 0.0 0.0 0.00 0.00 0.00 84 1013.9
20260901014547 29 97 0.0 0.0 0.00 0.00 0.00 84 1013.9
20260901014025 29 97 0.0 0.0 0.00 0.00 0.00 83 1013.9
20260901013522 29 97 0.0 0.0 0.00 0.00 0.00 83 1013.9
20260901013000 30 97 0.0 0.0 0.00 0.00 0.00 82 1013.9
20260901012457 30 97 0.0 0.0 0.00 0.00 0.00 82 1013.5
20260901011935 30 97 0.0 0.0 0.00 0.00 0.00 82 1013.9
20260901011433 30 97 0.0 0.0 0.00 0.00 0.00 81 1013.9
20260901010910 30 97 0.0 0.0 0.00 0.00 0.00 81 1013.9
20260901010408 30 97 0.0 0.0 0.00 0.00 0.00 81 1013.9
20260901005904 30 97 0.0 0.0 0.00 0.00 0.00 80 1013.9
20260901005402 30 97 0.0 0.0 0.00 0.00 0.00 80 1013.9
20260901004858 30 97 0.0 0.0 0.00 0.00 0.00 80 1013.9
20260901004337 31 97 0.0 0.0 0.00 0.00 0.00 79 1013.9
20260901003834 31 97 0.0 0.0 0.00 0.00 0.00 79 1013.9
20260901003330 31 97 0.0 0.0 0.00 0.00 0.00 79 1013.9
20260901002828 31 97 0.0 0.0 0.00 0.00 0.00 79 1013.9
20260901002324 31 97 0.0 1.6 0.00 0.00 0.00 78 1013.9
20260901001821 31 97 0.0 1.6 0.00 0.00 0.00 78 1013.9
20260901001318 31 97 0.0 1.6 0.00 0.00 0.00 78 1013.9
20260901000815 31 97 1.6 1.6 0.00 0.00 0.00 78 1013.9
20260901000314 31 97 0.0 0.0 0.00 0.00 0.00 78 1013.9
20260831235808 31 97 0.0 1.6 0.00 0.00 0.00 77 1013.9
20260831235306 31 97 0.0 1.6 0.00 0.00 0.00 77 1013.9
20260831234802 31 97 0.0 1.6 0.00 0.00 0.00 77 1013.9
20260831234300 32 97 0.0 1.6 0.00 0.00 0.00 76 1013.9
20260831233756 32 97 0.0 1.6 0.00 0.00 0.00 76 1013.9
20260831233254 32 97 0.0 1.6 0.00 0.00 0.00 75 1013.9
20260831232750 32 97 1.6 1.6 0.00 0.00 0.00 75 1013.9
20260831232152 32 97 0.0 1.6 0.00 0.00 0.00 75 1013.9
20260831231649 32 97 0.0 3.2 0.00 0.00 0.00 74 1013.9
20260831231127 32 97 0.0 3.2 0.00 0.00 0.00 74 1013.9
20260831230624 32 97 0.0 3.2 0.00 0.00 0.00 74 1013.9
20260831230121 32 97 1.6 4.8 0.00 0.00 0.00 74 1014.2
20260831225617 32 98 1.6 4.8 0.00 0.00 0.00 75 1014.2
20260831225012 32 98 1.6 4.8 0.00 0.00 0.00 76 1014.2
20260831224509 32 100 1.6 3.2 0.00 0.00 0.00 75 1013.9
20260831224005 32 322 1.6 3.2 0.00 0.00 0.00 75 1014.2
20260831223431 32 253 0.0 1.6 0.00 0.00 0.00 76 1014.2
20260831222859 32 253 1.6 1.6 0.00 0.00 0.00 77 1014.2
20260831222356 32 253 0.0 1.6 0.00 0.00 0.00 77 1014.2
20260831221853 32 248 0.0 1.6 0.00 0.00 0.00 77 1014.2
20260831221349 31 248 0.0 1.6 0.00 0.00 0.00 78 1014.2
20260831220813 31 248 0.0 1.6 0.00 0.00 0.00 78 1014.2
20260831220239 31 248 0.0 1.6 0.00 0.00 0.00 79 1014.2
20260831215634 31 248 0.0 1.6 0.00 0.00 0.00 79 1014.2
20260831215131 31 248 0.0 0.0 0.00 0.00 0.00 79 1014.6
20260831214628 31 248 0.0 4.8 0.00 0.00 0.00 79 1014.6
20260831214125 31 248 0.0 6.4 0.00 0.00 0.00 79 1014.6
20260831213551 31 248 0.0 6.4 0.00 0.00 0.00 79 1014.6
20260831213049 31 248 0.0 6.4 0.00 0.00 0.00 79 1014.6
20260831212545 31 248 3.2 6.4 0.00 0.00 0.00 79 1014.9
20260831212042 31 247 1.6 3.2 0.00 0.00 0.00 80 1014.9
20260831211539 31 247 1.6 3.2 0.00 0.00 0.00 80 1014.9
20260831211036 30 247 0.0 14.5 0.00 0.00 0.00 80 1014.9
20260831210533 30 246 0.0 14.5 0.00 0.00 0.00 80 1014.9
20260831210030 30 252 1.6 14.5 0.00 0.00 0.00 79 1015.2
20260831205456 31 257 6.4 14.5 0.00 0.00 0.00 78 1015.2
20260831204953 31 253 4.8 11.3 0.00 0.00 0.00 80 1015.2
20260831204450 31 269 1.6 6.4 0.00 0.00 0.00 80 1015.6
20260831203827 30 259 1.6 4.8 0.00 0.00 0.00 82 1015.6
20260831203253 30 258 1.6 4.8 0.00 0.00 0.00 81 1015.6
20260831202750 31 259 1.6 8.0 0.00 0.00 0.00 81 1015.6
20260831202246 31 15 3.2 24.1 0.00 0.00 0.00 80 1015.6
20260831201742 31 67 1.6 25.7 0.00 0.00 0.00 78 1015.6
20260831201239 32 76 3.2 25.7 0.00 0.00 0.00 78 1015.6
20260831200705 33 75 4.8 6.4 0.00 0.00 0.00 74 1015.6
20260831200144 33 265 1.6 4.8 0.00 0.00 0.00 72 1015.6
20260831195640 34 265 1.6 6.4 0.00 0.00 0.00 71 1015.6
20260831195106 35 302 1.6 14.5 0.00 0.00 0.00 69 1015.6
20260831194501 35 349 1.6 14.5 0.00 0.00 0.00 67 1015.6
20260831193958 35 33 3.2 14.5 0.00 0.00 0.00 66 1015.6
20260831193455 35 70 4.8 14.5 0.00 0.00 0.00 65 1015.6
20260831192921 35 344 3.2 9.7 0.00 0.00 0.00 65 1015.6
20260831192418 35 359 1.6 9.7 0.00 0.00 0.00 66 1015.6
20260831191915 35 101 3.2 9.7 0.00 0.00 0.00 66 1015.9
20260831191340 35 262 1.6 8.0 0.00 0.00 0.00 66 1015.9
20260831190806 36 83 4.8 8.0 0.00 0.00 0.00 62 1015.9
20260831190303 36 57 1.6 8.0 0.00 0.00 0.00 63 1015.9
20260831185759 36 48 1.6 8.0 0.00 0.00 0.00 62 1015.9